Year,Month,Day,Hour,Minute,Value (Times are PST for temperature in C)
2014,07,14,00,00,19.50
2014,07,14,00,01,19.50
2014,07,14,00,02,19.40
2014,07,14,00,03,19.40
2014,07,14,00,04,19.40
2014,07,14,00,05,19.40
2014,07,14,00,06,19.30
2014,07,14,00,07,19.30
2014,07,14,00,08,19.30
2014,07,14,00,09,19.20
2014,07,14,00,10,19.20
2014,07,14,00,11,19.20
2014,07,14,00,12,19.10
2014,07,14,00,13,19.10
2014,07,14,00,14,19.10
2014,07,14,00,15,19.00
2014,07,14,00,16,19.00
2014,07,14,00,17,18.90
2014,07,14,00,18,18.90
2014,07,14,00,19,18.80
2014,07,14,00,20,18.80
2014,07,14,00,21,18.70
2014,07,14,00,22,18.70
2014,07,14,00,23,18.60
2014,07,14,00,24,18.60
2014,07,14,00,25,18.60
2014,07,14,00,26,18.50
2014,07,14,00,27,18.40
2014,07,14,00,28,18.40
2014,07,14,00,29,18.30
2014,07,14,00,30,18.20
2014,07,14,00,31,18.10
2014,07,14,00,32,18.00
2014,07,14,00,33,17.80
2014,07,14,00,34,17.70
2014,07,14,00,35,17.60
2014,07,14,00,36,17.50
2014,07,14,00,37,17.40
2014,07,14,00,38,17.30
2014,07,14,00,39,17.20
2014,07,14,00,40,17.10
2014,07,14,00,41,17.00
2014,07,14,00,42,17.00
2014,07,14,00,43,16.90
2014,07,14,00,44,16.80
2014,07,14,00,45,16.80
2014,07,14,00,46,16.80
2014,07,14,00,47,16.70
2014,07,14,00,48,16.70
2014,07,14,00,49,16.70
2014,07,14,00,50,16.70
2014,07,14,00,51,16.70
2014,07,14,00,52,16.70
2014,07,14,00,53,16.80
2014,07,14,00,54,16.90
2014,07,14,00,55,16.90
2014,07,14,00,56,17.00
2014,07,14,00,57,17.10
2014,07,14,00,58,17.20
2014,07,14,00,59,17.30
2014,07,14,01,00,17.30
2014,07,14,01,01,17.40
2014,07,14,01,02,17.50
2014,07,14,01,03,17.60
2014,07,14,01,04,17.70
2014,07,14,01,05,17.80
2014,07,14,01,06,17.80
2014,07,14,01,07,17.80
2014,07,14,01,08,17.80
2014,07,14,01,09,17.90
2014,07,14,01,10,17.90
2014,07,14,01,11,17.90
2014,07,14,01,12,18.00
2014,07,14,01,13,18.00
2014,07,14,01,14,18.00
2014,07,14,01,15,18.10
2014,07,14,01,16,18.10
2014,07,14,01,17,18.10
2014,07,14,01,18,18.10
2014,07,14,01,19,18.20
2014,07,14,01,20,18.20
2014,07,14,01,21,18.20
2014,07,14,01,22,18.20
2014,07,14,01,23,18.20
2014,07,14,01,24,18.30
2014,07,14,01,25,18.30
2014,07,14,01,26,18.30
2014,07,14,01,27,18.30
2014,07,14,01,28,18.30
2014,07,14,01,29,18.30
2014,07,14,01,30,18.30
2014,07,14,01,31,18.30
2014,07,14,01,32,18.30
2014,07,14,01,33,18.30
2014,07,14,01,34,18.20
2014,07,14,01,35,18.20
2014,07,14,01,36,18.10
2014,07,14,01,37,18.10
2014,07,14,01,38,18.00
2014,07,14,01,39,18.00
2014,07,14,01,40,17.90
2014,07,14,01,41,17.90
2014,07,14,01,42,17.80
2014,07,14,01,43,17.80
2014,07,14,01,44,17.80
2014,07,14,01,45,17.70
2014,07,14,01,46,17.70
2014,07,14,01,47,17.70
2014,07,14,01,48,17.70
2014,07,14,01,49,17.70
2014,07,14,01,50,17.70
2014,07,14,01,51,17.70
2014,07,14,01,52,17.70
2014,07,14,01,53,17.70
2014,07,14,01,54,17.70
2014,07,14,01,55,17.70
2014,07,14,01,56,17.70
2014,07,14,01,57,17.70
2014,07,14,01,58,17.70
2014,07,14,01,59,17.70
2014,07,14,02,00,17.60
2014,07,14,02,01,17.60
2014,07,14,02,02,17.60
2014,07,14,02,03,17.60
2014,07,14,02,04,17.60
2014,07,14,02,05,17.50
2014,07,14,02,06,17.50
2014,07,14,02,07,17.50
2014,07,14,02,08,17.40
2014,07,14,02,09,17.50
2014,07,14,02,10,17.50
2014,07,14,02,11,17.50
2014,07,14,02,12,17.50
2014,07,14,02,13,17.50
2014,07,14,02,14,17.50
2014,07,14,02,15,17.50
2014,07,14,02,16,17.60
2014,07,14,02,17,17.60
2014,07,14,02,18,17.60
2014,07,14,02,19,17.60
2014,07,14,02,20,17.70
2014,07,14,02,21,17.70
2014,07,14,02,22,17.70
2014,07,14,02,23,17.70
2014,07,14,02,24,17.70
2014,07,14,02,25,17.70
2014,07,14,02,26,17.70
2014,07,14,02,27,17.80
2014,07,14,02,28,17.80
2014,07,14,02,29,17.80
2014,07,14,02,30,17.70
2014,07,14,02,31,17.70
2014,07,14,02,32,17.70
2014,07,14,02,33,17.70
2014,07,14,02,34,17.70
2014,07,14,02,35,17.60
2014,07,14,02,36,17.60
2014,07,14,02,37,17.60
2014,07,14,02,38,17.60
2014,07,14,02,39,17.50
2014,07,14,02,40,17.50
2014,07,14,02,41,17.50
2014,07,14,02,42,17.40
2014,07,14,02,43,17.40
2014,07,14,02,44,17.40
2014,07,14,02,45,17.40
2014,07,14,02,46,17.40
2014,07,14,02,47,17.30
2014,07,14,02,48,17.30
2014,07,14,02,49,17.30
2014,07,14,02,50,17.30
2014,07,14,02,51,17.30
2014,07,14,02,52,17.30
2014,07,14,02,53,17.30
2014,07,14,02,54,17.20
2014,07,14,02,55,17.20
2014,07,14,02,56,17.20
2014,07,14,02,57,17.20
2014,07,14,02,58,17.20
2014,07,14,02,59,17.20
2014,07,14,03,00,17.20
2014,07,14,03,01,17.20
2014,07,14,03,02,17.20
2014,07,14,03,03,17.20
2014,07,14,03,04,17.20
2014,07,14,03,05,17.20
2014,07,14,03,06,17.20
2014,07,14,03,07,17.20
2014,07,14,03,08,17.20
2014,07,14,03,09,17.20
2014,07,14,03,10,17.20
2014,07,14,03,11,17.20
2014,07,14,03,12,17.10
2014,07,14,03,13,17.10
2014,07,14,03,14,17.10
2014,07,14,03,15,17.10
2014,07,14,03,16,17.10
2014,07,14,03,17,17.10
2014,07,14,03,18,17.10
2014,07,14,03,19,17.10
2014,07,14,03,20,17.10
2014,07,14,03,21,17.10
2014,07,14,03,22,17.00
2014,07,14,03,23,17.00
2014,07,14,03,24,17.00
2014,07,14,03,25,17.00
2014,07,14,03,26,17.00
2014,07,14,03,27,17.00
2014,07,14,03,28,16.90
2014,07,14,03,29,16.90
2014,07,14,03,30,16.90
2014,07,14,03,31,16.90
2014,07,14,03,32,16.90
2014,07,14,03,33,16.90
2014,07,14,03,34,16.90
2014,07,14,03,35,16.90
2014,07,14,03,36,16.90
2014,07,14,03,37,16.80
2014,07,14,03,38,16.80
2014,07,14,03,39,16.80
2014,07,14,03,40,16.80
2014,07,14,03,41,16.80
2014,07,14,03,42,16.80
2014,07,14,03,43,16.70
2014,07,14,03,44,16.70
2014,07,14,03,45,16.70
2014,07,14,03,46,16.70
2014,07,14,03,47,16.70
2014,07,14,03,48,16.60
2014,07,14,03,49,16.60
2014,07,14,03,50,16.60
2014,07,14,03,51,16.60
2014,07,14,03,52,16.60
2014,07,14,03,53,16.60
2014,07,14,03,54,16.50
2014,07,14,03,55,16.50
2014,07,14,03,56,16.50
2014,07,14,03,57,16.50
2014,07,14,03,58,16.40
2014,07,14,03,59,16.40
2014,07,14,04,00,16.40
2014,07,14,04,01,16.40
2014,07,14,04,02,16.40
2014,07,14,04,03,16.30
2014,07,14,04,04,16.30
2014,07,14,04,05,16.30
2014,07,14,04,06,16.30
2014,07,14,04,07,16.30
2014,07,14,04,08,16.30
2014,07,14,04,09,16.30
2014,07,14,04,10,16.20
2014,07,14,04,11,16.20
2014,07,14,04,12,16.20
2014,07,14,04,13,16.20
2014,07,14,04,14,16.20
2014,07,14,04,15,16.20
2014,07,14,04,16,16.10
2014,07,14,04,17,16.10
2014,07,14,04,18,16.10
2014,07,14,04,19,16.10
2014,07,14,04,20,16.10
2014,07,14,04,21,16.00
2014,07,14,04,22,15.80
2014,07,14,04,23,15.70
2014,07,14,04,24,15.60
2014,07,14,04,25,15.40
2014,07,14,04,26,15.30
2014,07,14,04,27,15.10
2014,07,14,04,28,15.00
2014,07,14,04,29,14.90
2014,07,14,04,30,14.70
2014,07,14,04,31,14.60
2014,07,14,04,32,14.50
2014,07,14,04,33,14.40
2014,07,14,04,34,14.30
2014,07,14,04,35,14.20
2014,07,14,04,36,14.10
2014,07,14,04,37,14.10
2014,07,14,04,38,14.00
2014,07,14,04,39,14.00
2014,07,14,04,40,13.90
2014,07,14,04,41,13.90
2014,07,14,04,42,13.80
2014,07,14,04,43,13.80
2014,07,14,04,44,13.80
2014,07,14,04,45,13.80
2014,07,14,04,46,13.70
2014,07,14,04,47,13.70
2014,07,14,04,48,13.70
2014,07,14,04,49,13.70
2014,07,14,04,50,13.60
2014,07,14,04,51,13.60
2014,07,14,04,52,13.60
2014,07,14,04,53,13.60
2014,07,14,04,54,13.60
2014,07,14,04,55,13.60
2014,07,14,04,56,13.50
2014,07,14,04,57,13.50
2014,07,14,04,58,13.50
2014,07,14,04,59,13.50
2014,07,14,05,00,13.50
2014,07,14,05,01,13.40
2014,07,14,05,02,13.40
2014,07,14,05,03,13.40
2014,07,14,05,04,13.40
2014,07,14,05,05,13.40
2014,07,14,05,06,13.40
2014,07,14,05,07,13.40
2014,07,14,05,08,13.40
2014,07,14,05,09,13.30
2014,07,14,05,10,13.30
2014,07,14,05,11,13.30
2014,07,14,05,12,13.30
2014,07,14,05,13,13.30
2014,07,14,05,14,13.30
2014,07,14,05,15,13.30
2014,07,14,05,16,13.30
2014,07,14,05,17,13.20
2014,07,14,05,18,13.20
2014,07,14,05,19,13.20
2014,07,14,05,20,13.20
2014,07,14,05,21,13.20
2014,07,14,05,22,13.20
2014,07,14,05,23,13.10
2014,07,14,05,24,13.10
2014,07,14,05,25,13.10
2014,07,14,05,26,13.00
2014,07,14,05,27,13.00
2014,07,14,05,28,13.00
2014,07,14,05,29,12.90
2014,07,14,05,30,12.90
2014,07,14,05,31,12.90
2014,07,14,05,32,12.90
2014,07,14,05,33,12.90
2014,07,14,05,34,12.80
2014,07,14,05,35,12.80
2014,07,14,05,36,12.80
2014,07,14,05,37,12.80
2014,07,14,05,38,12.80
2014,07,14,05,39,12.80
2014,07,14,05,40,12.80
2014,07,14,05,41,12.70
2014,07,14,05,42,12.70
2014,07,14,05,43,12.70
2014,07,14,05,44,12.70
2014,07,14,05,45,12.60
2014,07,14,05,46,12.60
2014,07,14,05,47,12.60
2014,07,14,05,48,12.60
2014,07,14,05,49,12.50
2014,07,14,05,50,12.50
2014,07,14,05,51,12.40
2014,07,14,05,52,12.40
2014,07,14,05,53,12.40
2014,07,14,05,54,12.40
2014,07,14,05,55,12.40
2014,07,14,05,56,12.40
2014,07,14,05,57,12.40
2014,07,14,05,58,12.40
2014,07,14,05,59,12.40
2014,07,14,06,00,12.40
2014,07,14,06,01,12.40
2014,07,14,06,02,12.40
2014,07,14,06,03,12.40
2014,07,14,06,04,12.40
2014,07,14,06,05,12.40
2014,07,14,06,06,12.40
2014,07,14,06,07,12.40
2014,07,14,06,08,12.50
2014,07,14,06,09,12.50
2014,07,14,06,10,12.50
2014,07,14,06,11,12.50
2014,07,14,06,12,12.50
2014,07,14,06,13,12.60
2014,07,14,06,14,12.60
2014,07,14,06,15,12.60
2014,07,14,06,16,12.70
2014,07,14,06,17,12.70
2014,07,14,06,18,12.80
2014,07,14,06,19,12.80
2014,07,14,06,20,12.90
2014,07,14,06,21,12.90
2014,07,14,06,22,13.00
2014,07,14,06,23,13.00
2014,07,14,06,24,13.10
2014,07,14,06,25,13.10
2014,07,14,06,26,13.10
2014,07,14,06,27,13.20
2014,07,14,06,28,13.20
2014,07,14,06,29,13.20
2014,07,14,06,30,13.20
2014,07,14,06,31,13.20
2014,07,14,06,32,13.20
2014,07,14,06,33,13.20
2014,07,14,06,34,13.20
2014,07,14,06,35,13.20
2014,07,14,06,36,13.20
2014,07,14,06,37,13.20
2014,07,14,06,38,13.10
2014,07,14,06,39,13.10
2014,07,14,06,40,13.10
2014,07,14,06,41,13.10
2014,07,14,06,42,13.00
2014,07,14,06,43,13.00
2014,07,14,06,44,13.00
2014,07,14,06,45,13.00
2014,07,14,06,46,13.00
2014,07,14,06,47,13.00
2014,07,14,06,48,13.00
2014,07,14,06,49,13.00
2014,07,14,06,50,13.10
2014,07,14,06,51,13.10
2014,07,14,06,52,13.10
2014,07,14,06,53,13.10
2014,07,14,06,54,13.10
2014,07,14,06,55,13.20
2014,07,14,06,56,13.20
2014,07,14,06,57,13.20
2014,07,14,06,58,13.20
2014,07,14,06,59,13.20
2014,07,14,07,00,13.20
2014,07,14,07,01,13.20
2014,07,14,07,02,13.30
2014,07,14,07,03,13.30
2014,07,14,07,04,13.30
2014,07,14,07,05,13.30
2014,07,14,07,06,13.40
2014,07,14,07,07,13.40
2014,07,14,07,08,13.40
2014,07,14,07,09,13.50
2014,07,14,07,10,13.50
2014,07,14,07,11,13.60
2014,07,14,07,12,13.60
2014,07,14,07,13,13.70
2014,07,14,07,14,13.70
2014,07,14,07,15,13.70
2014,07,14,07,16,13.70
2014,07,14,07,17,13.80
2014,07,14,07,18,13.80
2014,07,14,07,19,13.80
2014,07,14,07,20,13.80
2014,07,14,07,21,13.80
2014,07,14,07,22,13.80
2014,07,14,07,23,13.80
2014,07,14,07,24,13.90
2014,07,14,07,25,13.90
2014,07,14,07,26,13.90
2014,07,14,07,27,13.90
2014,07,14,07,28,13.90
2014,07,14,07,29,13.90
2014,07,14,07,30,13.90
2014,07,14,07,31,14.00
2014,07,14,07,32,14.00
2014,07,14,07,33,14.00
2014,07,14,07,34,14.00
2014,07,14,07,35,14.10
2014,07,14,07,36,14.10
2014,07,14,07,37,14.10
2014,07,14,07,38,14.20
2014,07,14,07,39,14.20
2014,07,14,07,40,14.20
2014,07,14,07,41,14.30
2014,07,14,07,42,14.30
2014,07,14,07,43,14.40
2014,07,14,07,44,14.40
2014,07,14,07,45,14.50
2014,07,14,07,46,14.50
2014,07,14,07,47,14.60
2014,07,14,07,48,14.60
2014,07,14,07,49,14.70
2014,07,14,07,50,14.70
2014,07,14,07,51,14.80
2014,07,14,07,52,14.80
2014,07,14,07,53,14.80
2014,07,14,07,54,14.80
2014,07,14,07,55,14.80
2014,07,14,07,56,14.90
2014,07,14,07,57,14.90
2014,07,14,07,58,14.90
2014,07,14,07,59,15.00
2014,07,14,08,00,15.00
2014,07,14,08,01,15.10
2014,07,14,08,02,15.10
2014,07,14,08,03,15.20
2014,07,14,08,04,15.20
2014,07,14,08,05,15.30
2014,07,14,08,06,15.40
2014,07,14,08,07,15.40
2014,07,14,08,08,15.50
2014,07,14,08,09,15.50
2014,07,14,08,10,15.50
2014,07,14,08,11,15.60
2014,07,14,08,12,15.60
2014,07,14,08,13,15.70
2014,07,14,08,14,15.70
2014,07,14,08,15,15.70
2014,07,14,08,16,15.70
2014,07,14,08,17,15.80
2014,07,14,08,18,15.80
2014,07,14,08,19,15.90
2014,07,14,08,20,15.90
2014,07,14,08,21,16.00
2014,07,14,08,22,16.10
2014,07,14,08,23,16.20
2014,07,14,08,24,16.30
2014,07,14,08,25,16.40
2014,07,14,08,26,16.50
2014,07,14,08,27,16.60
2014,07,14,08,28,16.70
2014,07,14,08,29,16.80
2014,07,14,08,30,16.90
2014,07,14,08,31,17.00
2014,07,14,08,32,17.20
2014,07,14,08,33,17.30
2014,07,14,08,34,17.40
2014,07,14,08,35,17.50
2014,07,14,08,36,17.50
2014,07,14,08,37,17.60
2014,07,14,08,38,17.70
2014,07,14,08,39,17.80
2014,07,14,08,40,17.90
2014,07,14,08,41,18.00
2014,07,14,08,42,18.10
2014,07,14,08,43,18.20
2014,07,14,08,44,18.20
2014,07,14,08,45,18.30
2014,07,14,08,46,18.30
2014,07,14,08,47,18.40
2014,07,14,08,48,18.40
2014,07,14,08,49,18.50
2014,07,14,08,50,18.50
2014,07,14,08,51,18.50
2014,07,14,08,52,18.50
2014,07,14,08,53,18.50
2014,07,14,08,54,18.50
2014,07,14,08,55,18.50
2014,07,14,08,56,18.50
2014,07,14,08,57,18.50
2014,07,14,08,58,18.60
2014,07,14,08,59,18.60
2014,07,14,09,00,18.60
2014,07,14,09,01,18.60
2014,07,14,09,02,18.60
2014,07,14,09,03,18.70
2014,07,14,09,04,18.70
2014,07,14,09,05,18.70
2014,07,14,09,06,18.70
2014,07,14,09,07,18.70
2014,07,14,09,08,18.70
2014,07,14,09,09,18.70
2014,07,14,09,10,18.70
2014,07,14,09,11,18.70
2014,07,14,09,12,18.70
2014,07,14,09,13,18.70
2014,07,14,09,14,18.70
2014,07,14,09,15,18.70
2014,07,14,09,16,18.80
2014,07,14,09,17,18.80
2014,07,14,09,18,18.80
2014,07,14,09,19,18.80
2014,07,14,09,20,18.80
2014,07,14,09,21,18.80
2014,07,14,09,22,18.80
2014,07,14,09,23,18.90
2014,07,14,09,24,18.90
2014,07,14,09,25,18.90
2014,07,14,09,26,19.00
2014,07,14,09,27,19.10
2014,07,14,09,28,19.10
2014,07,14,09,29,19.10
2014,07,14,09,30,19.10
2014,07,14,09,31,19.10
2014,07,14,09,32,19.10
2014,07,14,09,33,19.20
2014,07,14,09,34,19.30
2014,07,14,09,35,19.30
2014,07,14,09,36,19.40
2014,07,14,09,37,19.40
2014,07,14,09,38,19.50
2014,07,14,09,39,19.50
2014,07,14,09,40,19.50
2014,07,14,09,41,19.60
2014,07,14,09,42,19.60
2014,07,14,09,43,19.60
2014,07,14,09,44,19.70
2014,07,14,09,45,19.70
2014,07,14,09,46,19.80
2014,07,14,09,47,19.80
2014,07,14,09,48,19.80
2014,07,14,09,49,19.80
2014,07,14,09,50,19.90
2014,07,14,09,51,19.90
2014,07,14,09,52,19.90
2014,07,14,09,53,20.00
2014,07,14,09,54,20.10
2014,07,14,09,55,20.10
2014,07,14,09,56,20.20
2014,07,14,09,57,20.30
2014,07,14,09,58,20.40
2014,07,14,09,59,20.40
2014,07,14,10,00,20.50
2014,07,14,10,01,20.60
2014,07,14,10,02,20.60
2014,07,14,10,03,20.60
2014,07,14,10,04,20.60
2014,07,14,10,05,20.60
2014,07,14,10,06,20.70
2014,07,14,10,07,20.70
2014,07,14,10,08,20.70
2014,07,14,10,09,20.70
2014,07,14,10,10,20.80
2014,07,14,10,11,20.90
2014,07,14,10,12,20.90
2014,07,14,10,13,21.00
2014,07,14,10,14,21.10
2014,07,14,10,15,21.10
2014,07,14,10,16,21.10
2014,07,14,10,17,21.20
2014,07,14,10,18,21.20
2014,07,14,10,19,21.30
2014,07,14,10,20,21.30
2014,07,14,10,21,21.30
2014,07,14,10,22,21.30
2014,07,14,10,23,21.30
2014,07,14,10,24,21.20
2014,07,14,10,25,21.20
2014,07,14,10,26,21.20
2014,07,14,10,27,21.20
2014,07,14,10,28,21.30
2014,07,14,10,29,21.30
2014,07,14,10,30,21.30
2014,07,14,10,31,21.30
2014,07,14,10,32,21.30
2014,07,14,10,33,21.40
2014,07,14,10,34,21.40
2014,07,14,10,35,21.50
2014,07,14,10,36,21.50
2014,07,14,10,37,21.60
2014,07,14,10,38,21.70
2014,07,14,10,39,21.80
2014,07,14,10,40,21.90
2014,07,14,10,41,22.00
2014,07,14,10,42,22.10
2014,07,14,10,43,22.10
2014,07,14,10,44,22.20
2014,07,14,10,45,22.20
2014,07,14,10,46,22.20
2014,07,14,10,47,22.20
2014,07,14,10,48,22.20
2014,07,14,10,49,22.10
2014,07,14,10,50,22.10
2014,07,14,10,51,22.10
2014,07,14,10,52,22.20
2014,07,14,10,53,22.20
2014,07,14,10,54,22.20
2014,07,14,10,55,22.20
2014,07,14,10,56,22.20
2014,07,14,10,57,22.20
2014,07,14,10,58,22.20
2014,07,14,10,59,22.20
2014,07,14,11,00,22.20
2014,07,14,11,01,22.20
2014,07,14,11,02,22.20
2014,07,14,11,03,22.20
2014,07,14,11,04,22.30
2014,07,14,11,05,22.30
2014,07,14,11,06,22.40
2014,07,14,11,07,22.50
2014,07,14,11,08,22.60
2014,07,14,11,09,22.60
2014,07,14,11,10,22.70
2014,07,14,11,11,22.80
2014,07,14,11,12,22.90
2014,07,14,11,13,22.90
2014,07,14,11,14,23.00
2014,07,14,11,15,23.10
2014,07,14,11,16,23.10
2014,07,14,11,17,23.20
2014,07,14,11,18,23.30
2014,07,14,11,19,23.40
2014,07,14,11,20,23.50
2014,07,14,11,21,23.50
2014,07,14,11,22,23.60
2014,07,14,11,23,23.60
2014,07,14,11,24,23.60
2014,07,14,11,25,23.60
2014,07,14,11,26,23.50
2014,07,14,11,27,23.40
2014,07,14,11,28,23.40
2014,07,14,11,29,23.40
2014,07,14,11,30,23.40
2014,07,14,11,31,23.40
2014,07,14,11,32,23.50
2014,07,14,11,33,23.50
2014,07,14,11,34,23.60
2014,07,14,11,35,23.60
2014,07,14,11,36,23.70
2014,07,14,11,37,23.80
2014,07,14,11,38,23.80
2014,07,14,11,39,23.90
2014,07,14,11,40,23.90
2014,07,14,11,41,23.90
2014,07,14,11,42,23.90
2014,07,14,11,43,24.00
2014,07,14,11,44,24.00
2014,07,14,11,45,24.10
2014,07,14,11,46,24.10
2014,07,14,11,47,24.20
2014,07,14,11,48,24.10
2014,07,14,11,49,24.10
2014,07,14,11,50,24.10
2014,07,14,11,51,24.00
2014,07,14,11,52,24.00
2014,07,14,11,53,24.00
2014,07,14,11,54,24.00
2014,07,14,11,55,23.90
2014,07,14,11,56,23.90
2014,07,14,11,57,23.90
2014,07,14,11,58,23.80
2014,07,14,11,59,23.80
2014,07,14,12,00,23.80
2014,07,14,12,01,23.80
2014,07,14,12,02,23.80
2014,07,14,12,03,23.70
2014,07,14,12,04,23.60
2014,07,14,12,05,23.60
2014,07,14,12,06,23.60
2014,07,14,12,07,23.60
2014,07,14,12,08,23.60
2014,07,14,12,09,23.60
2014,07,14,12,10,23.60
2014,07,14,12,11,23.60
2014,07,14,12,12,23.60
2014,07,14,12,13,23.40
2014,07,14,12,14,23.40
2014,07,14,12,15,23.30
2014,07,14,12,16,23.20
2014,07,14,12,17,23.20
2014,07,14,12,18,23.20
2014,07,14,12,19,23.10
2014,07,14,12,20,23.00
2014,07,14,12,21,23.00
2014,07,14,12,22,22.90
2014,07,14,12,23,22.80
2014,07,14,12,24,22.70
2014,07,14,12,25,22.70
2014,07,14,12,26,22.70
2014,07,14,12,27,22.70
2014,07,14,12,28,22.70
2014,07,14,12,29,22.60
2014,07,14,12,30,22.60
2014,07,14,12,31,22.60
2014,07,14,12,32,22.60
2014,07,14,12,33,22.60
2014,07,14,12,34,22.70
2014,07,14,12,35,22.80
2014,07,14,12,36,22.80
2014,07,14,12,37,22.80
2014,07,14,12,38,22.90
2014,07,14,12,39,22.90
2014,07,14,12,40,22.90
2014,07,14,12,41,22.80
2014,07,14,12,42,22.90
2014,07,14,12,43,22.90
2014,07,14,12,44,23.00
2014,07,14,12,45,23.00
2014,07,14,12,46,23.10
2014,07,14,12,47,23.20
2014,07,14,12,48,23.30
2014,07,14,12,49,23.30
2014,07,14,12,50,23.40
2014,07,14,12,51,23.40
2014,07,14,12,52,23.50
2014,07,14,12,53,23.60
2014,07,14,12,54,23.60
2014,07,14,12,55,23.60
2014,07,14,12,56,23.60
2014,07,14,12,57,23.60
2014,07,14,12,58,23.60
2014,07,14,12,59,23.60
2014,07,14,13,00,23.60
2014,07,14,13,01,23.60
2014,07,14,13,02,23.60
2014,07,14,13,03,23.70
2014,07,14,13,04,23.70
2014,07,14,13,05,23.70
2014,07,14,13,06,23.70
2014,07,14,13,07,23.70
2014,07,14,13,08,23.80
2014,07,14,13,09,23.90
2014,07,14,13,10,24.00
2014,07,14,13,11,24.10
2014,07,14,13,12,24.20
2014,07,14,13,13,24.20
2014,07,14,13,14,24.30
2014,07,14,13,15,24.30
2014,07,14,13,16,24.30
2014,07,14,13,17,24.40
2014,07,14,13,18,24.30
2014,07,14,13,19,24.30
2014,07,14,13,20,24.40
2014,07,14,13,21,24.40
2014,07,14,13,22,24.50
2014,07,14,13,23,24.60
2014,07,14,13,24,24.50
2014,07,14,13,25,24.50
2014,07,14,13,26,24.50
2014,07,14,13,27,24.60
2014,07,14,13,28,24.70
2014,07,14,13,29,24.80
2014,07,14,13,30,24.80
2014,07,14,13,31,24.90
2014,07,14,13,32,25.00
2014,07,14,13,33,25.00
2014,07,14,13,34,25.10
2014,07,14,13,35,25.10
2014,07,14,13,36,25.10
2014,07,14,13,37,25.20
2014,07,14,13,38,25.30
2014,07,14,13,39,25.30
2014,07,14,13,40,25.30
2014,07,14,13,41,25.20
2014,07,14,13,42,25.20
2014,07,14,13,43,25.20
2014,07,14,13,44,25.10
2014,07,14,13,45,24.90
2014,07,14,13,46,24.80
2014,07,14,13,47,24.80
2014,07,14,13,48,24.70
2014,07,14,13,49,24.70
2014,07,14,13,50,24.60
2014,07,14,13,51,24.60
2014,07,14,13,52,24.60
2014,07,14,13,53,24.60
2014,07,14,13,54,24.50
2014,07,14,13,55,24.60
2014,07,14,13,56,24.60
2014,07,14,13,57,24.60
2014,07,14,13,58,24.70
2014,07,14,13,59,24.70
2014,07,14,14,00,24.80
2014,07,14,14,01,24.80
2014,07,14,14,02,24.80
2014,07,14,14,03,24.80
2014,07,14,14,04,24.90
2014,07,14,14,05,24.90
2014,07,14,14,06,24.90
2014,07,14,14,07,24.90
2014,07,14,14,08,24.90
2014,07,14,14,09,25.00
2014,07,14,14,10,25.00
2014,07,14,14,11,25.10
2014,07,14,14,12,25.10
2014,07,14,14,13,25.20
2014,07,14,14,14,25.20
2014,07,14,14,15,25.20
2014,07,14,14,16,25.20
2014,07,14,14,17,25.30
2014,07,14,14,18,25.40
2014,07,14,14,19,25.50
2014,07,14,14,20,25.50
2014,07,14,14,21,25.60
2014,07,14,14,22,25.60
2014,07,14,14,23,25.60
2014,07,14,14,24,25.60
2014,07,14,14,25,25.60
2014,07,14,14,26,25.60
2014,07,14,14,27,25.60
2014,07,14,14,28,25.60
2014,07,14,14,29,25.60
2014,07,14,14,30,25.70
2014,07,14,14,31,25.60
2014,07,14,14,32,25.60
2014,07,14,14,33,25.60
2014,07,14,14,34,25.70
2014,07,14,14,35,25.70
2014,07,14,14,36,25.70
2014,07,14,14,37,25.60
2014,07,14,14,38,25.70
2014,07,14,14,39,25.60
2014,07,14,14,40,25.60
2014,07,14,14,41,25.50
2014,07,14,14,42,25.50
2014,07,14,14,43,25.40
2014,07,14,14,44,25.30
2014,07,14,14,45,25.30
2014,07,14,14,46,25.30
2014,07,14,14,47,25.30
2014,07,14,14,48,25.30
2014,07,14,14,49,25.30
2014,07,14,14,50,25.30
2014,07,14,14,51,25.20
2014,07,14,14,52,25.20
2014,07,14,14,53,25.20
2014,07,14,14,54,25.30
2014,07,14,14,55,25.30
2014,07,14,14,56,25.30
2014,07,14,14,57,25.30
2014,07,14,14,58,25.30
2014,07,14,14,59,25.30
2014,07,14,15,00,25.30
2014,07,14,15,01,25.20
2014,07,14,15,02,25.10
2014,07,14,15,03,25.00
2014,07,14,15,04,24.90
2014,07,14,15,05,24.90
2014,07,14,15,06,24.80
2014,07,14,15,07,24.80
2014,07,14,15,08,24.80
2014,07,14,15,09,24.80
2014,07,14,15,10,24.80
2014,07,14,15,11,24.80
2014,07,14,15,12,24.80
2014,07,14,15,13,24.80
2014,07,14,15,14,24.80
2014,07,14,15,15,24.80
2014,07,14,15,16,24.80
2014,07,14,15,17,24.80
2014,07,14,15,18,24.80
2014,07,14,15,19,24.70
2014,07,14,15,20,24.60
2014,07,14,15,21,24.50
2014,07,14,15,22,24.50
2014,07,14,15,23,24.40
2014,07,14,15,24,24.40
2014,07,14,15,25,24.40
2014,07,14,15,26,24.40
2014,07,14,15,27,24.40
2014,07,14,15,28,24.40
2014,07,14,15,29,24.50
2014,07,14,15,30,24.50
2014,07,14,15,31,24.60
2014,07,14,15,32,24.60
2014,07,14,15,33,24.70
2014,07,14,15,34,24.60
2014,07,14,15,35,24.60
2014,07,14,15,36,24.70
2014,07,14,15,37,24.70
2014,07,14,15,38,24.70
2014,07,14,15,39,24.60
2014,07,14,15,40,24.50
2014,07,14,15,41,24.40
2014,07,14,15,42,24.40
2014,07,14,15,43,24.30
2014,07,14,15,44,24.20
2014,07,14,15,45,24.10
2014,07,14,15,46,24.00
2014,07,14,15,47,23.90
2014,07,14,15,48,23.80
2014,07,14,15,49,23.80
2014,07,14,15,50,23.80
2014,07,14,15,51,23.80
2014,07,14,15,52,23.80
2014,07,14,15,53,23.80
2014,07,14,15,54,23.80
2014,07,14,15,55,23.80
2014,07,14,15,56,23.80
2014,07,14,15,57,23.70
2014,07,14,15,58,23.60
2014,07,14,15,59,23.50
2014,07,14,16,00,23.40
2014,07,14,16,01,23.40
2014,07,14,16,02,23.30
2014,07,14,16,03,23.30
2014,07,14,16,04,23.30
2014,07,14,16,05,23.40
2014,07,14,16,06,23.50
2014,07,14,16,07,23.60
2014,07,14,16,08,23.60
2014,07,14,16,09,23.50
2014,07,14,16,10,23.40
2014,07,14,16,11,23.40
2014,07,14,16,12,23.30
2014,07,14,16,13,23.30
2014,07,14,16,14,23.30
2014,07,14,16,15,23.30
2014,07,14,16,16,23.40
2014,07,14,16,17,23.40
2014,07,14,16,18,23.40
2014,07,14,16,19,23.50
2014,07,14,16,20,23.50
2014,07,14,16,21,23.40
2014,07,14,16,22,23.40
2014,07,14,16,23,23.40
2014,07,14,16,24,23.40
2014,07,14,16,25,23.40
2014,07,14,16,26,23.40
2014,07,14,16,27,23.40
2014,07,14,16,28,23.40
2014,07,14,16,29,23.40
2014,07,14,16,30,23.40
2014,07,14,16,31,23.40
2014,07,14,16,32,23.40
2014,07,14,16,33,23.40
2014,07,14,16,34,23.50
2014,07,14,16,35,23.50
2014,07,14,16,36,23.50
2014,07,14,16,37,23.60
2014,07,14,16,38,23.70
2014,07,14,16,39,23.70
2014,07,14,16,40,23.80
2014,07,14,16,41,23.80
2014,07,14,16,42,23.90
2014,07,14,16,43,23.90
2014,07,14,16,44,24.00
2014,07,14,16,45,24.10
2014,07,14,16,46,24.20
2014,07,14,16,47,24.20
2014,07,14,16,48,24.20
2014,07,14,16,49,24.20
2014,07,14,16,50,24.20
2014,07,14,16,51,24.10
2014,07,14,16,52,24.00
2014,07,14,16,53,23.90
2014,07,14,16,54,23.80
2014,07,14,16,55,23.60
2014,07,14,16,56,23.50
2014,07,14,16,57,23.40
2014,07,14,16,58,23.40
2014,07,14,16,59,23.40
2014,07,14,17,00,23.40
2014,07,14,17,01,23.40
2014,07,14,17,02,23.40
2014,07,14,17,03,23.40
2014,07,14,17,04,23.40
2014,07,14,17,05,23.40
2014,07,14,17,06,23.50
2014,07,14,17,07,23.50
2014,07,14,17,08,23.60
2014,07,14,17,09,23.60
2014,07,14,17,10,23.70
2014,07,14,17,11,23.70
2014,07,14,17,12,23.70
2014,07,14,17,13,23.80
2014,07,14,17,14,23.70
2014,07,14,17,15,23.70
2014,07,14,17,16,23.60
2014,07,14,17,17,23.50
2014,07,14,17,18,23.30
2014,07,14,17,19,23.20